GEFSSE_con_cape1000_000.txt.gz
Probability
0 77 100 94 100 100 100 100 100 100 100 100 100 97 94 90 94 39 26 26 52 100 100 100 100 100 100 100 100 100 100 100 100 100 100 100 100 100 100 100 100 100 100
0 81 100 97 100 100 100 100 100 100 100 100 100 100 100 100 58 10 29 39 45 84 100 100 100 100 100 100 100 100 100 100 100 100 100 100 100 100 100 100 100 100 100
0 81 77 100 100 100 100 100 100 100 100 100 100 100 100 100 97 97 100 87 48 39 74 100 100 100 100 100 100 100 100 100 100 100 100 100 100 100 100 100 100 100 100
0 35 19 100 100 100 100 100 100 100 100 100 100 100 100 100 100 100 100 100 100 87 48 35 61 84 94 100 100 100 100 100 100 100 100 68 87 100 100 100 100 100 100
19 23 100 100 100 100 100 100 100 100 100 100 100 100 100 100 100 100 100 100 100 100 100 94 65 48 68 94 100 100 100 100 100 100 94 81 90 100 100 100 100 100 100
29 16 100 100 100 100 100 100 100 100 100 100 100 100 100 100 100 100 100 97 100 100 100 100 100 100 94 94 94 100 100 100 100 23 16 90 97 100 100 90 100 100 100
35 48 100 100 100 100 100 100 100 100 100 100 100 100 100 97 97 97 97 97 97 100 100 100 100 100 100 100 100 100 100 100 48 0 48 97 100 100 100 100 100 100 100
16 52 100 100 100 100 100 100 100 100 100 100 100 100 100 100 100 100 97 97 97 97 97 100 100 100 100 100 100 100 100 100 100 77 26 94 100 100 100 100 100 100 100
16 32 100 100 100 100 100 100 100 100 100 100 100 100 100 100 100 100 100 100 100 100 100 100 100 100 100 100 100 100 100 100 26 97 84 100 100 100 100 100 100 100 100
81 74 100 100 100 100 100 100 100 100 100 100 100 100 100 100 100 100 100 100 100 100 100 100 100 100 100 100 100 100 100 100 19 0 16 97 100 100 100 100 100 100 100
100 100 100 97 94 94 97 100 100 100 100 100 100 100 100 100 100 100 100 100 100 100 100 100 100 100 100 100 100 100 100 100 87 65 3 100 100 100 100 100 100 100 100
100 100 100 100 100 100 94 97 100 100 100 100 100 100 100 100 100 100 100 100 100 100 100 100 100 100 100 100 100 100 100 100 68 94 97 100 100 100 100 100 100 100 100
100 100 100 100 100 100 100 100 100 100 100 100 100 100 100 100 100 100 100 100 100 100 100 100 100 100 100 100 100 100 100 100 100 100 97 100 100 100 100 100 100 100 100
100 100 100 100 100 100 100 100 100 100 100 100 100 100 100 100 100 100 100 100 100 100 100 100 100 100 81 61 65 71 84 74 100 100 100 100 100 100 100 100 100 100 100
100 100 100 100 100 100 100 100 100 100 100 97 100 100 100 100 100 100 100 100 100 100 100 100 90 32 55 48 58 74 81 65 77 100 100 100 100 100 100 100 100 100 100
100 100 100 100 100 100 100 100 100 100 100 100 100 100 100 100 100 100 100 100 100 100 100 94 23 0 0 0 26 65 94 61 84 100 100 100 100 100 100 100 100 100 100
100 100 100 100 100 100 100 100 100 100 100 100 100 100 100 100 100 100 97 94 97 100 94 68 10 0 0 0 0 3 55 35 39 52 77 87 97 100 100 100 100 100 100
100 100 100 100 100 100 100 100 100 100 100 100 100 100 100 100 100 100 97 97 87 90 81 29 0 0 0 0 0 3 16 13 0 0 45 48 55 97 97 100 100 100 100
100 100 100 100 100 100 100 100 100 100 100 97 97 97 90 81 68 97 90 87 94 84 77 77 45 13 16 26 61 71 55 32 19 6 32 23 45 90 94 94 97 100 100
100 100 100 100 100 100 100 100 100 97 81 71 55 61 81 39 10 23 19 16 3 3 3 23 52 87 94 94 94 100 100 65 55 71 16 10 42 84 97 94 94 100 100
100 100 100 100 100 100 100 90 74 19 6 0 0 6 10 0 10 19 0 0 0 0 0 0 3 3 19 42 74 90 94 97 100 100 81 65 81 90 94 100 100 97 100
100 100 100 100 100 100 97 74 16 0 0 0 0 6 26 45 45 6 3 0 0 0 0 0 0 0 0 0 3 10 6 10 55 87 97 97 87 71 45 45 87 94 94
97 100 100 100 100 100 68 39 97 97 87 6 6 10 35 45 13 3 0 0 0 0 0 0 0 0 0 0 0 0 3 0 3 58 100 97 97 87 68 45 26 29 29
97 97 100 100 100 100 100 32 65 6 0 0 6 0 42 10 3 0 0 0 0 0 0 0 0 0 0 0 0 0 0 0 6 42 81 97 100 100 77 55 26 16 16
97 97 97 100 100 100 100 100 87 35 0 0 23 68 45 6 0 0 0 0 0 0 0 0 6 13 6 0 0 0 0 77 71 26 6 19 42 19 26 35 16 6 3
100 100 100 100 100 100 100 97 97 100 84 48 68 39 0 0 0 0 0 0 0 0 0 0 0 6 6 13 16 74 0 3 16 13 0 0 0 0 32 3 6 10 3

GEFSSE_con_cape1000_006.txt.gz
Probability
13 58 100 100 100 100 100 100 100 100 84 68 94 58 23 16 13 10 23 58 100 100 100 100 100 100 100 100 100 100 97 90 100 100 97 97 100 100 100 74 97 74 100
16 81 100 100 100 100 100 100 100 100 100 100 100 87 61 35 6 3 3 32 90 100 100 100 100 100 100 100 100 100 100 94 68 90 94 97 97 97 90 97 100 100 94
10 77 100 100 100 100 100 100 100 100 100 100 100 100 81 23 0 0 0 10 16 52 77 77 77 84 97 100 87 84 84 77 71 68 97 100 100 90 94 100 100 100 97
6 19 90 100 100 100 100 100 100 100 100 100 100 100 100 58 16 6 3 0 0 0 0 0 3 10 19 23 32 77 97 81 61 100 100 100 87 100 100 100 100 100 97
3 16 100 100 100 100 100 100 100 100 100 100 100 100 100 94 81 52 29 6 0 3 3 0 0 0 0 3 10 23 48 71 87 100 100 100 97 100 100 100 100 100 100
39 77 100 100 100 100 100 100 100 100 100 100 100 100 100 90 71 42 29 16 16 10 19 19 29 19 6 0 10 16 26 29 29 6 23 81 100 100 100 100 100 100 100
84 100 97 100 100 100 100 100 100 100 100 100 100 100 100 97 77 74 61 52 55 65 68 87 97 100 100 81 71 71 61 19 19 0 0 10 100 100 100 100 100 100 100
97 100 100 100 100 100 100 100 100 100 100 100 100 100 100 100 94 90 94 87 87 87 94 97 100 100 100 100 100 100 100 100 52 13 13 68 100 100 100 100 100 100 100
97 100 100 100 100 100 100 100 100 100 100 100 100 100 100 100 100 100 100 100 100 100 100 100 100 100 100 100 100 100 100 100 100 35 19 97 100 100 100 100 100 100 100
100 100 100 100 100 100 100 100 100 100 100 100 100 100 100 100 100 100 100 100 100 100 100 100 100 100 100 100 100 100 100 100 97 0 0 74 100 100 100 100 100 100 100
94 100 100 100 100 100 100 100 100 100 100 100 100 100 100 100 100 100 100 100 100 100 100 100 100 100 100 100 100 100 100 100 10 3 45 68 100 100 100 100 100 100 100
94 100 100 100 100 100 100 100 100 100 100 100 100 100 100 100 100 100 100 100 100 100 100 100 100 100 100 100 100 100 100 97 61 74 94 100 100 100 100 100 100 100 100
100 100 100 100 100 100 100 100 100 100 100 100 100 100 100 100 100 100 100 100 100 100 100 100 100 100 100 100 100 100 100 100 100 100 100 100 100 100 100 100 100 100 100
100 100 100 100 100 100 100 100 100 100 100 100 100 100 100 100 100 100 100 100 100 100 100 100 100 100 100 100 100 100 94 100 100 100 100 100 100 100 100 100 100 100 100
100 100 100 100 100 100 100 100 100 100 100 100 100 100 100 100 100 100 100 100 100 100 100 100 100 100 100 100 84 48 71 84 97 94 100 100 100 100 100 100 100 100 100
100 100 100 100 100 100 100 100 100 100 100 100 100 100 100 100 100 100 100 100 100 100 100 97 94 100 94 74 52 23 23 23 65 94 94 100 100 100 100 100 100 100 100
100 100 100 100 100 100 100 100 100 100 100 100 100 100 100 100 100 100 100 100 100 100 100 100 100 97 77 61 26 13 6 6 6 26 71 94 97 97 100 100 100 100 100
100 100 100 100 100 100 100 100 100 100 100 100 100 100 100 100 100 100 100 100 100 100 100 100 100 97 74 55 35 29 19 26 23 26 42 68 65 55 87 100 100 100 100
100 100 100 100 100 100 100 100 100 100 100 100 97 100 100 94 81 94 100 100 100 100 100 100 97 97 90 81 81 74 74 71 68 68 68 65 58 42 48 84 100 100 97
100 97 100 100 100 100 100 100 100 100 100 97 87 97 42 39 32 55 84 97 77 74 77 87 100 100 97 94 48 23 61 48 68 77 77 58 52 42 39 39 74 87 97
94 97 97 100 100 100 100 100 100 100 100 71 68 71 0 6 23 71 81 84 68 65 65 32 32 29 29 42 39 32 26 29 23 32 42 42 42 61 65 45 29 48 84
94 94 97 100 100 100 100 100 100 97 90 81 61 84 32 65 84 35 94 65 68 77 29 42 39 32 0 0 6 3 0 0 35 16 32 45 71 94 90 71 58 65 74
90 84 90 97 100 100 100 100 100 100 100 97 97 100 100 97 87 71 45 55 68 45 39 68 55 29 0 0 0 0 0 0 0 6 32 45 81 100 97 87 77 68 52
77 81 84 90 97 100 100 100 100 100 97 100 100 100 100 87 68 45 29 48 77 61 55 29 26 48 32 3 0 19 3 0 3 0 0 26 74 90 100 81 65 77 74
26 29 45 71 90 97 100 100 100 100 100 100 100 100 100 100 100 81 68 61 71 55 52 52 42 29 16 13 19 16 0 3 6 0 0 13 68 94 100 100 100 94 81
3 10 16 29 45 58 68 87 97 100 100 100 100 100 100 100 100 90 77 74 58 39 45 48 52 19 29 23 19 6 3 0 0 0 6 10 13 19 97 97 97 97 81

GEFSSE_con_cape1000_012.txt.gz
Probability
13 100 100 100 100 100 97 90 61 35 48 42 35 58 71 71 77 100 100 100 100 100 100 100 100 100 100 100 100 100 100 100 100 100 100 100 100 100 100 100 100 100 100
19 100 100 100 100 100 100 97 65 68 65 52 42 58 71 71 74 100 100 100 100 100 100 100 100 100 100 100 100 100 100 100 100 100 100 100 100 100 100 100 100 100 100
39 100 100 100 100 100 100 97 87 81 84 71 58 74 68 55 61 77 100 100 100 100 100 100 100 100 100 100 100 97 97 87 94 100 97 55 94 100 100 100 100 100 100
45 97 100 100 100 100 100 100 94 94 100 81 77 68 35 16 29 61 84 97 97 97 97 97 97 94 90 84 84 90 74 42 61 94 81 77 65 97 100 100 100 100 100
32 84 100 100 100 100 100 100 100 100 100 100 90 45 35 42 39 29 26 45 58 61 65 65 48 52 55 39 52 84 84 77 61 74 58 68 19 90 100 100 100 100 100
3 74 100 100 100 100 100 100 100 100 100 100 100 71 65 81 87 68 48 26 26 10 3 6 10 10 16 16 23 42 45 48 42 10 6 6 3 87 100 100 100 100 100
3 71 100 100 100 100 100 100 100 100 100 100 100 100 97 97 97 100 94 77 68 61 58 52 48 35 32 26 32 45 48 19 13 0 0 0 0 87 100 100 100 100 100
10 68 100 100 100 100 100 100 100 100 100 100 100 100 100 100 100 100 100 94 94 94 94 97 97 100 100 100 97 97 94 87 55 16 3 0 10 97 100 100 100 100 100
6 39 100 100 100 100 100 100 100 100 100 100 100 100 100 100 100 100 100 100 97 97 100 100 100 100 100 100 100 100 100 100 100 84 45 0 35 100 100 100 100 100 100
3 13 81 100 100 100 100 100 100 100 100 100 100 100 100 100 100 100 100 100 100 100 100 100 100 100 100 100 100 100 100 100 100 100 84 0 90 100 100 100 100 100 100
0 3 39 94 100 100 100 100 100 100 100 100 100 100 100 100 100 100 100 100 100 100 100 100 100 100 100 100 100 100 100 100 100 100 61 16 100 100 100 100 100 100 100
13 3 13 52 74 97 100 100 100 100 100 100 100 100 100 100 97 100 100 100 100 100 100 100 100 100 100 100 100 100 100 100 100 84 35 94 100 100 100 100 100 100 100
74 23 6 13 35 65 55 81 100 100 100 100 100 100 100 97 94 100 90 100 100 100 100 100 100 100 100 100 100 100 100 100 84 58 19 97 94 97 100 100 100 100 100
81 35 16 10 32 42 32 65 100 97 100 100 100 100 94 94 97 90 84 68 71 87 97 100 100 100 100 97 97 87 84 87 77 58 16 97 94 90 100 100 100 100 100
71 61 29 19 58 58 74 97 97 84 100 100 94 94 100 100 100 65 45 39 42 42 65 68 65 58 58 68 61 39 16 16 39 39 16 90 94 90 97 97 100 100 100
61 68 61 77 94 90 94 97 94 97 100 100 100 100 100 100 71 23 6 6 6 19 26 16 6 3 3 3 3 0 0 0 0 0 0 3 87 90 97 97 100 100 100
29 42 48 68 84 84 90 97 97 97 100 100 100 100 100 94 61 19 6 3 3 3 3 3 3 0 0 0 0 0 0 0 0 0 0 0 0 55 94 97 100 100 100
6 16 26 42 61 65 71 81 87 94 97 100 100 97 100 94 77 45 13 3 0 0 0 0 0 0 0 0 0 0 0 0 0 0 0 0 3 3 23 94 97 100 100
0 3 10 16 23 45 61 74 77 81 94 100 97 94 97 97 90 23 0 0 0 0 0 0 0 0 0 0 0 0 0 0 0 0 0 0 0 0 0 10 90 97 97
0 3 3 10 13 23 35 52 74 77 77 77 77 68 68 45 58 10 3 0 0 0 0 0 0 0 0 0 0 0 0 0 0 0 0 0 0 0 0 0 0 32 87
0 0 0 3 13 19 32 48 55 58 61 61 52 45 19 3 16 3 0 0 0 0 0 0 0 0 0 0 0 0 0 0 0 0 0 0 0 0 0 0 0 0 3
0 0 0 0 10 16 32 45 39 29 19 23 23 13 13 0 0 0 0 0 0 0 0 0 0 0 0 0 0 0 0 0 0 0 0 0 0 0 0 0 0 0 0
0 0 0 0 0 0 3 6 3 0 0 0 0 0 0 0 0 0 0 0 0 0 0 0 0 0 0 0 0 0 0 0 0 0 0 0 0 0 0 0 0 0 0
0 0 0 0 0 0 0 0 3 3 0 0 0 0 0 0 0 0 0 0 0 0 0 0 0 0 0 0 0 0 0 0 0 0 0 0 0 0 0 0 0 0 0
0 0 0 0 0 0 0 0 0 0 0 0 0 0 0 0 0 0 0 0 0 0 0 0 0 0 0 0 0 0 0 0 0 0 0 0 0 0 0 0 0 0 0
0 0 0 0 0 0 0 0 0 0 0 0 0 0 0 0 0 0 0 0 0 0 0 0 0 0 0 0 0 0 0 0 0 0 0 0 0 0 0 0 0 0 0

GEFSSE_con_cape1000_018.txt.gz
Probability
0 87 100 97 90 81 61 61 81 97 100 100 100 100 100 100 100 100 100 100 100 100 100 100 100 100 100 100 100 100 100 100 100 100 100 100 100 100 100 100 100 100 100
0 90 100 100 94 94 68 65 71 97 100 100 100 100 100 100 100 100 100 100 100 100 100 100 100 100 100 100 100 100 100 100 100 100 100 100 100 100 100 100 100 100 100
3 100 100 100 97 97 87 71 71 87 100 100 100 100 100 100 100 100 100 100 100 100 100 100 100 100 100 100 100 100 100 100 100 100 100 100 100 100 100 100 100 100 100
39 100 100 100 100 100 97 90 77 87 97 97 100 100 100 100 100 100 100 100 100 100 100 100 100 100 100 97 100 100 100 100 100 100 74 87 97 100 100 100 100 100 100
65 100 100 100 100 100 100 94 84 81 87 94 94 100 100 100 100 100 100 100 100 100 100 100 97 97 94 97 87 97 97 97 100 97 35 61 74 100 100 100 100 100 100
84 100 100 100 100 100 100 97 94 90 77 90 94 100 97 97 100 100 100 100 100 97 97 97 94 87 84 81 81 77 84 77 77 45 29 42 26 94 100 100 100 100 100
90 97 100 100 100 100 100 100 97 97 94 94 97 97 87 97 94 94 97 94 87 74 77 74 68 58 48 45 39 55 58 39 26 13 10 6 10 77 100 100 100 100 100
94 100 100 100 100 100 100 100 100 100 100 100 97 97 94 94 97 97 94 90 94 94 97 97 94 90 100 100 97 94 77 35 23 3 3 0 0 39 100 100 100 100 100
94 100 100 100 100 100 100 100 100 100 100 100 100 97 97 100 100 100 100 100 100 100 100 100 100 100 100 100 100 100 100 100 74 61 32 10 6 77 97 100 100 100 100
97 100 100 100 100 100 100 100 100 100 100 100 100 100 100 100 100 100 100 100 100 100 100 100 100 100 100 100 100 100 100 100 100 100 94 84 74 94 97 100 100 100 100
84 100 100 100 100 100 100 100 100 100 100 100 100 100 100 100 100 100 100 100 100 100 100 100 100 100 100 100 100 100 100 100 100 100 100 100 100 100 100 100 100 100 100
39 77 90 90 90 84 94 90 90 97 100 100 100 100 100 100 100 100 100 100 100 100 100 100 100 100 100 100 100 100 100 100 100 100 100 100 100 100 100 100 100 100 100
6 35 48 55 65 71 74 74 84 90 90 97 100 100 100 100 100 100 100 100 100 100 100 100 100 94 94 97 97 100 100 100 100 100 94 100 100 100 100 100 100 100 100
13 13 13 39 42 45 52 55 71 81 84 87 94 100 100 100 100 100 100 100 100 100 100 97 94 94 97 97 97 94 97 97 90 84 77 97 100 97 97 97 100 100 100
23 19 19 23 26 23 29 39 45 58 68 77 84 90 97 94 90 81 74 77 77 71 58 55 52 65 71 87 90 84 77 68 65 68 61 74 97 100 97 97 100 100 100
13 13 13 13 16 16 16 19 29 39 48 58 61 71 74 77 58 42 29 26 13 16 16 6 6 16 23 23 16 23 48 42 42 35 29 26 65 84 97 94 97 97 97
0 3 3 10 6 6 6 6 10 16 23 39 39 39 48 58 55 29 10 0 0 0 0 0 0 0 0 0 0 0 0 0 3 3 0 0 0 6 32 55 74 90 97
0 0 0 0 3 3 3 3 6 10 16 29 26 42 52 61 58 35 3 0 0 0 0 0 0 0 0 0 0 0 0 0 0 0 0 0 0 0 0 16 48 81 94
0 0 0 0 0 0 3 3 10 10 13 26 29 39 42 65 61 13 0 0 0 0 0 0 0 0 0 0 0 0 0 0 0 0 0 0 0 0 0 0 6 48 74
0 0 0 0 0 0 0 0 0 0 3 6 23 26 39 42 55 0 0 0 0 0 0 0 0 0 0 0 0 0 0 0 0 0 0 0 0 0 0 0 0 3 35
0 0 0 0 0 0 0 0 0 0 0 3 10 29 32 32 48 3 0 0 0 0 0 0 0 0 0 0 0 0 0 0 0 0 0 0 0 0 0 0 0 0 0
0 0 0 0 0 0 0 0 0 0 0 0 3 6 13 16 16 13 0 0 0 0 0 0 0 0 0 0 0 0 0 0 0 0 0 0 0 0 0 0 0 0 0
0 0 0 0 0 0 0 0 0 0 0 0 0 0 0 3 0 0 0 0 0 0 0 0 0 0 0 0 0 0 0 0 0 0 0 0 0 0 0 0 0 0 0
0 0 0 0 0 0 0 0 0 0 0 0 0 0 0 0 0 0 0 0 0 0 0 0 0 0 0 0 0 0 0 0 0 0 0 0 0 0 0 0 0 0 0
0 0 0 0 0 0 0 0 0 0 0 0 0 0 0 0 0 0 0 0 0 0 0 0 0 0 0 0 0 0 0 0 0 0 0 0 0 0 0 0 0 0 0
0 0 0 0 0 0 0 0 0 0 0 0 0 0 0 0 0 0 0 0 0 0 0 0 0 0 0 0 0 0 0 0 0 0 0 0 0 0 0 0 0 0 0

GEFSSE_con_cape1000_024.txt.gz
Probability
71 100 100 100 100 100 100 100 100 100 100 100 100 100 100 100 100 100 100 100 100 97 97 97 97 100 100 100 100 100 100 100 100 100 100 100 100 100 100 100 97 100 100
97 100 100 100 100 100 100 100 100 100 100 100 100 100 100 100 100 100 100 100 100 97 100 100 100 100 100 100 100 100 100 100 100 100 100 100 100 100 100 97 100 100 100
97 100 100 100 100 100 100 100 100 100 100 100 100 100 100 100 100 100 100 100 100 100 100 100 100 100 100 97 97 97 100 100 100 100 100 94 84 100 100 97 100 100 100
97 100 97 100 100 100 100 100 100 100 100 100 100 100 100 100 100 100 100 100 100 100 100 100 100 97 97 90 90 97 100 100 100 100 100 74 52 100 100 100 100 100 100
90 100 100 100 100 100 97 97 100 100 100 100 100 100 100 100 100 100 100 100 100 100 100 100 97 90 74 74 68 87 94 97 97 97 71 87 97 100 100 100 100 100 100
84 100 100 100 100 100 100 97 100 100 100 100 100 100 100 100 100 100 100 100 100 100 100 100 100 90 74 52 58 61 87 94 94 16 6 48 90 100 100 100 100 97 100
39 84 100 100 100 100 100 97 100 97 100 100 100 100 100 100 100 100 100 100 100 100 100 100 97 90 74 65 58 65 77 90 77 45 29 32 65 97 100 100 100 100 100
26 65 100 100 100 100 100 97 97 90 84 94 97 100 100 100 100 100 100 100 100 97 94 87 84 84 84 84 81 94 94 87 13 23 55 58 90 65 87 100 100 100 100
19 58 100 100 100 100 100 100 100 97 90 94 100 97 97 97 100 100 100 100 97 94 90 87 87 87 90 97 97 100 100 90 10 6 13 61 81 55 74 100 100 100 100
55 74 100 100 100 100 100 100 100 100 100 100 100 94 94 90 97 100 100 100 100 100 100 100 100 100 100 100 100 100 100 100 6 0 3 32 94 74 94 100 100 100 100
97 100 100 100 100 100 100 100 100 100 100 100 100 100 100 61 13 94 90 100 100 100 100 100 100 100 100 100 100 100 100 94 16 16 45 94 100 97 100 100 100 100 100
100 100 100 100 100 100 94 94 100 100 100 100 100 100 100 84 81 52 90 100 100 100 100 100 100 100 100 100 100 100 97 84 39 42 90 100 100 100 100 100 100 100 100
100 100 97 90 94 97 94 90 94 94 100 100 100 100 100 97 97 90 84 100 100 100 100 100 100 100 100 100 97 100 90 61 55 32 61 100 100 100 100 100 100 100 100
94 94 94 94 90 84 84 84 84 87 87 87 94 97 97 97 97 100 100 97 100 100 100 100 100 100 100 100 97 100 97 87 68 68 100 100 100 100 100 100 100 100 100
87 84 71 65 65 61 65 55 45 65 71 71 84 81 90 90 94 97 94 100 97 90 97 100 100 100 100 100 97 90 94 84 84 74 81 97 100 100 100 100 97 97 100
68 61 58 55 52 61 58 55 45 42 58 48 55 65 71 87 87 90 94 97 94 94 90 94 84 90 87 87 90 90 94 97 90 94 81 81 87 97 100 100 94 97 100
45 45 45 32 29 29 29 29 26 23 23 32 48 48 52 58 74 71 77 84 90 94 94 94 87 94 77 77 77 84 87 90 94 94 94 81 77 87 90 81 90 97 97
23 26 39 16 19 26 29 55 23 19 16 13 29 26 32 32 42 52 58 71 77 84 90 90 77 61 65 71 87 84 87 94 90 100 100 97 87 77 74 68 68 84 87
42 39 39 39 32 35 39 55 39 52 39 23 19 19 19 19 26 29 39 45 61 65 71 45 52 58 58 61 61 77 87 94 90 87 90 87 87 74 65 52 48 48 42
29 35 39 23 45 35 26 39 48 52 19 13 13 6 3 13 10 19 23 32 35 45 45 52 61 77 68 58 3 0 29 39 42 32 16 16 29 23 19 16 19 16 10
16 16 19 16 23 26 13 19 26 32 42 19 16 6 6 10 16 23 16 32 29 32 32 16 23 19 35 26 13 13 10 6 6 6 6 3 0 0 0 3 3 13 16
0 0 0 3 6 6 19 23 26 39 29 23 29 29 3 6 13 16 29 39 35 52 45 32 35 16 3 6 6 3 3 3 3 0 3 0 0 0 0 0 0 6 6
0 0 0 0 0 0 0 0 3 16 19 13 13 10 0 3 10 19 32 39 48 29 35 65 55 23 0 3 3 0 0 0 0 0 0 0 0 0 0 0 0 0 6
0 0 0 0 0 0 0 0 0 0 0 3 0 0 0 0 0 3 19 45 55 68 74 52 39 23 10 0 0 0 0 0 0 0 0 0 0 0 0 0 0 0 3
0 0 0 0 0 0 0 0 0 0 0 0 0 0 0 0 0 0 0 29 48 52 65 65 58 45 16 3 0 0 0 0 0 0 0 0 0 0 0 0 0 0 0
0 0 0 0 0 0 0 0 0 0 0 0 0 0 0 0 0 0 0 0 13 26 45 61 74 71 45 19 3 0 0 0 0 0 0 0 0 0 0 0 0 0 0

GEFSSE_con_cape1000_030.txt.gz
Probability
100 100 100 100 100 100 100 100 100 100 100 100 100 100 100 100 100 100 97 97 100 97 94 94 94 90 84 94 100 100 100 100 97 97 100 100 100 100 100 100 100 100 100
100 100 100 100 100 100 100 100 100 100 100 100 100 100 100 100 100 97 97 97 97 97 97 94 94 100 100 100 100 100 100 97 97 97 100 100 100 100 100 100 100 100 100
100 100 100 100 100 100 100 100 100 100 100 100 100 100 100 100 100 100 100 100 100 94 97 100 100 100 100 97 97 94 94 100 97 97 100 94 90 100 100 100 100 100 100
100 100 100 100 100 100 100 100 100 100 100 100 100 100 100 100 100 100 100 100 97 97 97 100 100 100 97 97 97 94 90 94 94 100 97 81 48 94 100 100 100 100 100
100 100 100 100 100 100 100 100 100 100 100 100 100 100 100 100 100 100 100 100 100 100 100 100 100 97 94 97 97 94 90 100 100 100 97 97 84 100 100 100 100 100 100
100 100 100 100 100 100 100 100 100 100 100 100 100 100 100 100 100 100 97 100 100 100 100 100 100 100 94 97 94 94 97 100 100 100 100 100 97 100 100 97 97 100 100
100 100 100 100 100 100 100 100 100 100 100 100 100 100 100 100 100 97 100 100 100 100 100 100 100 100 97 94 90 94 94 100 97 97 87 100 100 100 100 100 97 97 100
97 100 100 100 100 100 100 100 100 100 100 100 100 100 100 100 100 100 100 100 100 100 100 100 100 100 100 100 94 94 97 97 61 52 58 97 100 100 100 100 100 100 97
97 100 100 100 100 100 100 100 100 100 100 100 100 100 100 100 100 100 100 100 100 100 100 100 100 94 97 97 100 100 100 100 84 29 19 100 100 100 100 100 100 100 100
97 100 100 100 100 100 100 100 100 100 100 100 100 100 100 100 100 100 100 100 100 100 100 100 97 97 97 97 100 100 100 100 42 3 3 100 100 100 100 100 100 100 100
94 100 100 100 100 100 100 100 100 100 100 100 100 100 100 100 97 100 100 100 100 100 97 97 100 100 100 100 100 100 100 87 10 0 0 87 100 100 100 100 100 100 100
84 90 100 100 100 100 100 100 100 100 100 100 100 100 100 100 100 90 100 100 100 97 97 97 100 100 100 100 100 100 97 48 23 6 19 97 100 100 100 100 100 100 100
87 100 100 100 97 97 97 97 97 100 100 100 100 100 100 100 94 77 81 100 97 97 97 97 97 97 97 87 84 100 74 39 26 13 65 100 100 100 100 100 100 100 100
100 97 90 90 94 97 97 94 94 90 94 94 97 97 100 100 97 94 87 84 84 84 90 94 94 97 97 97 87 97 94 81 58 42 94 100 100 100 100 100 100 100 100
90 87 90 94 97 100 100 94 94 94 87 84 97 97 94 94 94 94 94 94 87 74 71 71 74 77 77 87 94 90 97 94 90 87 97 100 100 100 100 100 100 100 100
84 87 87 87 94 97 97 97 97 90 90 90 90 94 90 94 94 90 90 87 68 48 42 58 48 52 71 71 84 81 94 94 90 94 81 97 97 100 100 100 100 100 100
74 81 81 71 84 90 90 87 87 90 84 90 94 90 90 87 87 84 81 68 52 42 42 39 32 39 35 45 58 65 74 77 77 81 77 77 81 97 97 100 100 100 100
74 77 74 29 52 65 71 81 68 74 87 94 94 87 84 87 81 68 55 45 39 29 26 23 23 23 10 19 26 29 35 48 61 71 58 35 45 52 87 90 100 100 100
68 81 81 68 45 45 48 55 58 71 77 87 90 84 77 71 61 48 48 39 23 13 13 10 13 10 10 6 10 10 13 13 23 19 19 29 29 29 42 61 90 97 100
45 65 55 52 52 42 39 35 26 26 42 42 68 84 77 71 55 48 35 29 6 3 0 0 6 13 10 13 6 3 6 19 19 19 23 10 19 23 32 42 58 71 94
16 26 39 42 61 61 55 13 16 16 19 26 35 45 35 32 45 58 23 29 10 3 0 0 3 0 10 10 6 3 3 10 13 23 16 6 6 16 35 45 32 35 26
10 16 13 26 35 42 48 39 23 26 6 3 19 16 19 10 10 6 35 23 23 13 6 0 0 3 3 3 6 0 0 0 6 0 6 16 0 6 13 39 23 29 23
6 3 0 23 23 29 29 0 0 0 0 0 0 10 3 3 3 10 13 23 19 16 6 0 3 3 3 0 0 3 0 0 0 0 0 0 3 3 0 0 13 29 13
0 0 0 0 3 10 3 0 0 0 0 0 0 0 0 0 0 0 3 6 10 13 10 6 0 3 6 3 3 3 0 0 0 0 0 0 3 0 0 0 0 10 16
0 0 0 3 0 0 0 0 0 0 0 0 0 0 0 0 0 0 0 3 3 10 10 6 3 3 6 0 3 3 3 0 0 0 0 0 0 0 0 0 0 0 6
0 0 0 0 0 0 0 0 0 0 0 0 0 0 0 0 0 0 0 3 3 0 6 3 3 3 3 3 10 0 3 3 0 0 0 0 0 0 0 0 0 3 3

GEFSSE_con_cape1000_036.txt.gz
Probability
100 100 100 100 100 100 100 100 100 100 100 100 100 100 100 100 100 100 100 100 100 100 100 100 100 100 100 100 100 100 100 100 100 100 100 100 100 100 100 100 100 100 100
100 100 100 100 100 100 100 100 100 100 100 100 100 100 100 100 100 100 100 100 100 100 100 100 100 100 100 100 100 100 100 100 100 100 100 100 100 100 100 100 100 100 100
97 100 100 100 100 100 100 100 100 100 100 100 100 100 100 100 100 100 100 100 100 100 100 100 100 100 100 100 100 100 100 100 100 100 100 100 100 100 100 100 100 100 100
100 100 100 100 100 100 100 100 100 100 100 100 100 100 100 100 100 100 100 100 100 100 100 100 100 100 100 100 100 100 100 100 100 100 71 94 100 100 100 100 100 100 100
100 100 100 100 100 100 100 100 100 100 100 100 100 100 100 100 100 100 100 100 100 100 100 100 100 100 100 100 100 100 100 100 100 97 71 42 94 100 100 100 100 100 100
100 100 100 100 100 100 100 100 100 100 100 100 100 100 100 100 100 100 100 100 100 100 100 100 100 100 97 100 100 100 100 100 100 94 52 29 87 100 100 100 100 100 100
100 100 100 100 100 100 100 100 100 100 100 100 100 100 100 100 100 100 100 100 100 100 100 100 100 100 97 97 97 100 100 100 100 68 32 29 87 100 100 100 100 100 100
100 100 100 100 100 100 100 100 100 100 100 100 100 100 100 100 100 100 100 100 100 100 100 100 100 100 100 100 100 100 100 100 100 71 52 10 84 100 100 100 100 100 100
100 100 100 100 100 100 100 100 100 100 100 100 100 100 100 100 100 100 100 100 100 100 100 100 100 100 100 100 100 100 100 100 94 45 45 29 100 100 100 100 100 100 100
100 100 100 100 100 100 100 100 100 100 100 100 100 100 100 100 100 100 100 100 100 100 100 100 100 100 100 100 100 100 100 100 84 61 13 39 100 100 100 100 100 100 100
94 97 97 97 97 100 100 100 100 100 100 100 100 100 100 100 100 100 100 100 100 100 100 100 100 100 100 100 100 100 100 97 52 16 6 26 100 100 100 100 100 100 100
87 87 90 94 90 97 100 100 100 100 100 100 100 100 100 100 97 100 100 100 100 100 100 100 100 100 97 97 100 100 100 84 52 16 6 32 100 100 100 100 100 100 100
77 81 68 74 74 81 87 90 90 97 97 100 97 97 97 100 97 90 87 87 87 90 94 87 94 87 90 84 77 87 81 81 52 16 3 42 100 100 100 100 100 100 100
48 55 42 39 35 52 55 58 55 55 68 74 90 87 87 81 74 71 52 29 45 68 71 81 77 77 84 81 71 58 58 52 26 10 0 35 97 100 100 100 100 100 100
35 23 26 29 23 29 26 23 29 23 32 42 52 61 61 58 55 42 29 19 26 23 23 42 52 48 42 55 55 45 32 29 23 10 0 52 97 100 100 100 100 100 100
13 10 13 10 6 10 13 10 19 19 13 16 16 39 45 32 35 39 35 29 10 16 10 10 10 16 19 26 26 29 19 16 6 10 3 13 84 97 100 100 100 97 100
16 10 13 6 0 3 6 6 6 10 10 6 10 13 16 23 16 16 16 3 3 3 0 3 3 3 3 6 6 10 10 10 6 3 3 10 39 77 84 94 94 90 90
6 6 10 6 3 3 0 0 0 0 0 3 0 3 6 10 16 10 6 3 0 0 0 0 0 0 0 3 3 0 0 3 3 3 3 6 6 26 68 87 90 87 90
6 3 0 0 0 0 0 0 0 0 0 0 0 3 6 6 10 3 3 0 0 0 0 0 0 0 0 0 0 0 0 0 3 3 3 3 6 6 10 42 71 81 90
3 0 0 0 0 0 0 0 0 0 0 0 0 0 0 0 0 0 3 0 0 0 0 0 0 0 0 0 0 0 0 0 0 0 0 0 0 0 0 3 26 58 81
3 0 0 0 0 0 0 0 0 0 0 0 0 0 0 0 0 0 0 0 0 0 0 0 0 0 0 0 0 0 0 0 0 0 0 0 0 0 0 0 0 10 23
3 0 0 0 0 0 0 0 0 0 0 0 0 0 0 0 0 0 0 0 0 0 0 0 0 0 0 0 0 0 0 0 0 0 0 0 0 0 0 0 0 0 0
3 0 0 0 0 0 0 0 0 0 0 0 0 0 0 0 0 0 0 0 0 0 0 0 0 0 0 0 0 0 0 0 0 0 0 0 0 0 0 0 3 0 0
0 0 0 0 0 0 0 0 0 0 0 0 0 0 0 0 0 0 0 0 0 0 0 0 0 0 0 0 0 0 0 0 0 0 0 0 0 0 0 0 0 0 0
0 0 0 0 0 0 0 0 0 0 0 0 0 0 0 0 0 0 0 0 0 0 0 0 0 0 0 0 0 0 0 0 0 0 0 0 0 0 0 0 0 0 0
0 0 0 0 0 0 0 0 0 0 0 0 0 0 0 0 0 0 0 0 0 0 0 0 0 0 0 0 0 0 0 0 0 0 0 0 0 0 0 0 0 0 0

GEFSSE_con_cape1000_042.txt.gz
Probability
97 100 100 100 100 100 100 100 100 100 100 100 100 100 100 100 100 100 100 100 100 100 100 97 100 100 94 97 100 100 100 100 100 100 100 100 100 100 100 100 100 100 100
100 100 100 100 100 100 100 100 100 100 100 100 100 100 100 100 100 100 100 100 100 100 100 100 100 100 100 100 100 100 100 100 100 100 100 100 100 100 100 100 100 100 100
100 100 100 100 100 100 100 100 100 100 100 100 100 100 100 100 100 100 100 100 100 100 100 100 100 100 100 100 100 100 100 100 100 100 100 100 100 100 100 100 100 100 100
100 100 100 100 100 100 100 100 100 100 100 100 100 100 100 100 100 100 100 100 100 100 100 100 100 100 100 100 100 100 100 100 100 100 100 100 100 100 100 100 100 100 100
100 100 100 100 100 100 100 100 100 100 100 100 100 100 100 100 100 100 100 100 100 100 100 100 100 100 100 100 100 100 100 100 100 97 94 100 100 100 100 100 100 100 100
100 100 100 100 100 100 100 100 100 100 100 100 100 100 100 100 100 100 100 100 100 100 100 100 100 100 100 100 100 100 100 100 100 94 97 97 100 100 100 100 100 100 100
100 100 100 100 100 100 100 100 100 100 100 100 100 100 100 100 100 100 100 100 100 100 100 100 100 100 100 100 100 100 100 100 87 81 81 90 97 100 100 100 100 100 100
100 100 100 100 100 100 100 100 100 100 100 100 100 100 100 100 100 100 100 100 100 100 100 100 100 100 100 100 100 100 100 100 97 84 74 87 94 100 100 100 100 100 100
100 100 100 100 100 100 100 100 100 100 100 100 100 100 100 100 100 100 100 100 100 100 100 100 100 97 100 100 97 100 100 100 81 77 71 74 97 100 100 100 100 100 100
100 100 97 97 100 100 100 100 100 100 100 100 100 100 100 100 100 100 100 100 100 100 100 100 97 97 97 97 97 97 97 100 90 84 68 65 97 100 100 100 100 100 100
94 94 90 90 94 100 100 100 100 100 100 100 100 100 100 100 100 100 100 100 100 100 100 100 97 97 94 94 90 94 97 97 94 90 74 77 100 100 100 100 100 100 100
87 84 81 81 87 90 97 94 94 97 94 97 94 97 100 100 100 100 100 100 100 100 100 100 100 97 90 90 87 87 87 97 84 87 61 94 100 100 100 100 100 100 100
74 68 55 65 71 74 77 74 71 71 68 71 77 90 94 97 97 100 94 81 81 81 81 84 87 90 87 87 84 84 87 87 84 81 65 97 100 90 100 100 100 100 100
39 39 26 26 35 39 39 35 29 29 29 39 52 55 68 68 71 71 68 58 58 58 58 58 71 74 84 81 74 71 77 87 87 81 61 90 97 84 97 100 100 100 100
16 13 10 10 10 10 10 6 6 0 6 6 13 23 32 42 48 42 39 42 32 32 39 29 35 39 48 58 68 65 68 65 68 68 45 68 94 94 81 87 100 100 100
10 6 6 6 6 3 3 3 0 0 0 0 3 10 19 26 23 19 16 13 13 16 16 13 6 13 16 16 19 26 39 39 48 45 45 42 77 97 90 87 94 100 100
3 0 0 0 0 0 0 0 0 0 0 0 0 0 0 6 10 10 3 3 3 3 3 3 0 3 3 6 6 10 13 16 35 29 29 23 19 48 84 94 97 97 100
0 0 0 3 0 0 0 0 0 0 0 0 0 0 0 0 0 3 0 0 0 0 0 0 0 0 0 3 3 3 3 10 10 13 23 13 13 3 26 74 87 90 97
0 0 0 0 0 0 0 0 0 0 0 0 0 0 0 0 0 0 0 0 0 0 0 0 0 0 0 0 0 3 3 3 0 0 6 10 10 3 10 16 58 81 90
0 0 0 0 0 0 0 0 0 0 0 0 0 0 0 0 0 0 0 0 0 0 0 0 0 0 0 0 0 0 0 3 0 0 0 0 0 3 3 6 23 48 77
0 0 0 0 0 0 0 0 0 0 0 0 0 0 0 0 0 0 0 0 0 0 0 0 0 0 0 0 0 0 0 0 0 0 0 0 0 0 3 6 10 10 35
0 0 0 0 0 0 0 0 0 0 0 0 0 0 0 0 0 0 0 0 0 0 0 0 0 0 0 0 0 0 0 0 0 0 0 0 0 0 3 3 3 6 13
0 0 0 0 0 0 0 0 0 0 0 0 0 0 0 0 0 0 0 0 0 0 0 0 0 0 0 0 0 0 0 0 0 0 0 0 0 3 3 3 3 3 3
0 0 0 0 0 0 0 0 0 0 0 0 0 0 0 0 0 0 0 0 0 0 0 0 0 0 0 0 0 0 0 0 0 0 0 0 0 0 0 0 0 3 6
0 0 0 0 0 0 0 0 0 0 0 0 0 0 0 0 0 0 0 0 0 0 0 0 0 0 0 0 0 0 0 0 0 0 0 0 0 0 0 0 0 0 3
0 0 0 0 0 0 0 0 0 0 0 0 0 0 0 0 0 0 0 0 0 0 0 0 0 0 0 0 0 0 0 0 0 0 0 0 0 0 0 0 0 0 0

GEFSSE_con_cape1000_048.txt.gz
Probability
94 97 100 100 100 100 100 100 100 100 100 100 100 100 100 100 100 100 100 100 100 100 97 94 97 94 90 100 100 100 97 100 100 100 100 100 100 100 100 100 100 100 100
97 100 100 100 100 100 100 100 100 100 100 100 100 100 100 100 100 100 100 100 100 100 97 97 100 97 97 97 100 100 100 100 97 94 100 100 100 100 100 100 100 100 100
100 100 100 100 100 100 100 100 100 100 100 100 100 100 100 100 100 100 100 100 100 97 97 97 100 100 100 100 100 100 100 100 100 97 100 100 100 100 100 100 100 100 100
100 100 100 100 100 100 100 100 100 100 100 100 100 100 100 100 100 100 100 100 100 100 100 100 97 94 100 100 100 100 100 100 100 100 97 90 97 100 100 100 100 100 100
100 100 100 100 100 100 100 100 100 100 100 100 100 100 100 100 100 100 100 100 100 100 100 100 97 94 94 94 97 100 100 100 97 100 68 94 100 100 100 100 100 100 100
100 100 100 100 100 100 100 100 100 100 100 100 100 100 100 100 100 100 100 100 100 100 100 100 97 94 94 97 97 100 100 100 100 58 55 74 100 100 100 100 100 100 100
97 100 100 100 100 100 100 100 100 100 100 100 100 100 100 100 100 100 100 100 100 100 100 100 100 100 97 97 97 100 100 100 90 55 71 65 100 100 100 100 100 100 100
90 100 100 100 100 100 100 100 100 100 100 100 100 100 100 100 100 100 100 100 100 100 100 100 100 100 100 100 100 100 100 97 84 68 65 77 100 100 100 100 100 100 100
90 97 100 100 100 100 100 100 100 100 100 100 100 100 100 100 100 100 100 100 100 100 100 100 100 100 100 100 100 100 97 97 87 77 74 90 100 100 100 100 100 100 100
94 94 100 100 100 100 100 100 100 100 100 100 97 97 97 100 100 100 100 100 100 100 100 100 100 100 100 100 100 97 97 97 71 71 77 94 100 100 100 100 100 100 100
100 94 94 90 100 100 94 97 100 94 94 94 97 97 97 97 100 100 100 100 100 100 100 100 100 100 100 100 100 94 94 84 55 71 74 97 100 100 100 100 100 100 100
90 97 97 97 97 94 90 97 97 90 90 87 94 97 97 97 97 97 97 100 100 100 100 100 100 100 100 94 94 94 84 71 39 65 77 94 100 97 100 100 100 100 100
94 84 90 94 97 90 90 90 90 74 71 68 71 74 87 87 90 90 94 97 97 100 100 97 90 90 97 97 94 90 84 71 65 61 71 97 97 97 97 100 100 100 100
97 90 87 84 90 84 84 74 74 48 45 52 55 55 68 77 84 77 77 84 81 84 87 87 87 87 90 87 87 90 87 87 81 71 84 94 97 97 97 97 100 100 100
90 87 84 77 77 81 74 48 29 35 26 32 35 35 45 55 58 58 77 81 74 68 61 61 61 61 68 68 81 84 87 94 81 81 84 94 94 97 97 97 100 100 100
81 74 71 68 58 58 45 23 19 19 19 6 13 16 29 35 39 45 58 58 55 55 52 58 48 55 55 55 58 61 81 77 87 81 77 90 94 90 94 94 94 100 100
68 65 55 45 42 26 16 10 6 6 0 0 0 0 6 10 23 32 35 42 35 39 39 29 29 29 42 29 35 45 48 55 61 71 71 68 77 87 87 87 90 94 100
55 45 23 19 16 10 10 10 3 3 3 0 0 0 3 0 6 13 10 13 10 13 16 16 19 16 13 16 13 23 32 55 55 65 58 68 71 55 74 81 87 90 94
48 19 19 16 6 10 6 6 3 3 3 0 0 0 0 0 0 0 3 10 6 3 3 10 3 10 6 10 6 13 13 19 32 39 45 52 61 65 52 52 81 84 90
23 19 19 13 16 10 6 10 3 0 0 0 0 0 0 0 0 0 0 0 0 0 3 0 3 10 10 13 0 0 6 10 16 26 35 39 48 52 52 52 52 61 74
23 23 19 19 16 13 10 3 3 0 0 0 0 0 0 0 0 0 0 0 0 0 0 0 0 0 0 3 6 6 6 6 10 19 26 32 26 32 32 39 35 42 52
26 29 26 29 19 16 10 10 3 0 0 0 0 0 0 0 0 0 0 0 0 0 0 0 0 0 0 0 0 6 0 0 19 3 13 23 19 29 32 13 32 42 32
29 32 19 29 23 19 10 6 3 0 0 0 0 0 0 0 0 0 0 0 0 0 0 0 0 0 0 0 0 3 3 3 3 3 3 3 3 10 10 10 10 16 26
29 26 35 45 45 26 16 6 0 0 0 0 0 0 0 0 0 0 0 0 0 0 0 0 0 0 0 0 0 3 3 3 3 0 0 3 3 3 3 3 6 10 16
16 23 39 52 52 32 16 13 13 3 0 0 0 0 0 0 0 0 0 0 0 0 0 0 0 0 0 0 0 0 0 0 3 0 0 0 0 0 3 3 6 6 13
32 29 29 45 58 35 19 6 6 6 3 0 0 0 0 0 0 0 0 0 0 0 0 0 0 0 0 0 0 0 0 0 0 0 0 0 0 0 3 0 0 6 6

GEFSSE_con_cape1000_054.txt.gz
Probability
97 100 100 100 100 100 100 100 100 100 100 100 100 100 100 100 100 100 100 100 97 94 94 90 94 100 100 97 97 90 94 97 90 87 94 94 97 100 97 97 94 97 97
97 100 100 100 100 100 100 100 100 100 100 100 100 100 100 100 100 100 100 100 97 97 94 81 90 97 97 94 87 90 90 90 87 90 97 97 100 100 100 100 94 100 100
100 100 100 100 100 100 100 100 100 100 100 100 100 100 100 100 100 100 100 100 97 97 94 90 90 94 94 84 87 87 87 87 90 100 100 100 100 97 97 90 100 97 100
97 100 100 100 100 100 100 100 100 100 100 100 100 100 100 100 100 100 100 100 100 100 100 94 87 87 87 90 90 87 90 94 97 100 100 100 90 97 97 97 97 100 97
100 100 100 100 100 100 100 100 100 100 100 100 100 100 100 100 100 100 97 100 100 100 100 97 90 74 87 94 94 94 94 97 100 100 100 100 100 100 97 97 97 97 100
100 100 100 100 100 100 100 100 100 100 100 100 100 100 100 100 100 100 100 100 100 100 100 100 97 87 90 90 97 94 97 100 100 100 100 100 100 100 100 100 100 94 100
100 100 100 100 100 100 100 100 100 100 100 100 100 100 100 100 100 100 100 100 100 100 100 100 100 97 94 94 90 94 100 100 100 100 100 100 100 100 100 100 100 97 100
100 100 100 100 100 100 100 100 100 100 100 100 100 97 100 100 100 100 100 100 100 100 100 100 100 100 97 100 97 94 100 100 97 84 97 100 100 100 100 100 97 94 97
100 100 100 100 100 100 100 100 100 100 100 100 100 100 100 100 100 100 100 100 100 100 100 100 100 100 97 100 100 94 100 100 90 84 94 97 100 100 100 100 100 97 97
100 100 100 100 100 100 100 100 100 97 97 94 97 97 97 97 100 97 97 100 100 100 100 100 100 100 100 100 100 100 100 100 74 55 81 97 100 100 100 100 100 100 97
100 100 100 100 100 100 100 97 97 97 94 94 94 97 97 97 97 94 94 94 100 100 100 100 100 100 100 100 100 100 100 90 61 52 81 100 97 100 100 100 100 100 100
97 97 97 100 100 97 94 97 94 90 94 94 87 87 90 94 97 87 84 84 87 94 94 97 100 100 100 100 97 100 97 87 58 39 87 100 100 100 100 100 100 100 100
97 97 97 94 94 90 90 87 81 84 87 84 77 74 87 81 84 87 90 84 84 84 94 97 97 97 97 100 97 90 87 77 68 65 90 100 97 97 97 100 100 100 100
97 94 84 87 87 87 87 84 81 68 61 65 58 58 58 65 74 74 87 81 84 87 84 81 84 84 90 94 94 87 87 87 81 77 90 94 94 97 97 97 100 100 100
90 84 84 87 81 77 77 65 42 42 29 32 42 52 45 42 52 65 71 77 68 74 87 87 87 81 74 77 71 74 74 74 74 84 90 94 94 94 97 97 100 100 100
84 84 84 81 71 65 58 35 32 23 26 13 19 13 16 19 35 52 58 68 68 68 81 81 71 61 65 71 68 65 65 65 65 87 87 84 87 94 97 97 100 100 100
84 81 77 65 52 39 29 26 13 10 6 3 3 6 6 3 13 16 29 61 58 52 52 55 52 58 61 45 61 48 52 58 55 74 74 77 77 90 90 97 97 100 100
74 74 58 35 39 39 29 16 10 13 10 3 3 3 3 3 3 10 19 32 42 39 45 42 39 32 29 29 39 35 45 52 52 65 61 65 77 77 97 97 100 100 97
77 74 65 45 35 19 19 10 13 13 10 6 3 0 0 0 0 0 13 19 10 13 19 6 32 19 16 23 19 19 26 39 45 26 48 55 68 74 74 87 94 97 94
84 74 61 48 45 29 26 19 19 10 6 3 3 0 0 0 0 0 0 6 0 3 16 19 19 13 13 23 0 0 19 26 35 26 39 29 58 65 61 68 94 94 94
81 81 71 58 58 55 39 32 32 16 6 3 3 0 0 0 0 0 0 0 0 3 3 0 6 3 6 6 10 3 6 13 13 32 42 39 35 48 61 74 84 81 81
68 84 81 77 74 68 71 52 42 23 13 10 0 0 0 0 0 0 0 0 0 0 0 0 3 3 0 0 3 0 0 3 13 0 35 39 32 42 45 19 65 77 61
52 77 39 81 81 77 61 48 39 19 16 16 0 0 0 0 0 0 0 0 0 0 0 3 3 6 0 0 3 0 0 0 0 3 10 23 23 32 29 32 29 39 55
45 52 90 94 90 90 71 61 32 26 16 16 3 3 0 0 0 0 0 0 0 0 0 0 0 3 3 3 0 3 0 0 0 0 3 3 6 16 29 6 13 35 42
42 55 84 97 97 90 77 58 42 29 19 13 6 3 0 0 0 0 0 0 0 0 0 0 0 3 3 3 3 0 0 0 0 0 0 0 3 6 13 19 19 23 23
48 58 77 100 97 87 68 52 42 26 19 10 6 3 0 0 0 0 0 0 0 0 0 0 0 0 0 0 0 0 0 0 0 0 0 0 0 3 6 6 10 10 13